Weather History for KLAR - November, 2011

Change the Weather History Date:

Wednesday, November 16, 2011

  Actual Average Record
Temperature  
Mean Temperature 22 °F 29 °F  
Max Temperature 29 °F 41 °F 65 °F (1999)
Min Temperature 15 °F 17 °F -20 °F (2014)
Degree Days  
Heating Degree Days 43 36  
Month to date heating degree days 602 520  
Since 1 July heating degree days 1632 1763  
Cooling Degree Days 0 0  
Month to date cooling degree days 0 0  
Year to date cooling degree days 126 67  
Moisture  
Dew Point 2 °F    
Average Humidity 44    
Maximum Humidity 73    
Minimum Humidity 14    
Precipitation  
Precipitation T in 0.02 in 0.25 in (1958)
Month to date precipitation 0.23 0.32  
Year to date precipitation 10.18 10.38  
Sea Level Pressure  
Sea Level Pressure 30.18 in    
Wind  
Wind Speed 18 mph (WNW)    
Max Wind Speed 30 mph    
Max Gust Speed 38 mph    
Visibility 9 miles    
Events Snow    
T = Trace of Precipitation, MM = Missing Value Source: NWS Daily Summary

Daily Weather History Graph

Daily Weather History Graph

Search for Another Location

Airport or City:

Trip Planner

Search our weather history database for the weather conditions in past years. The results will help you decide how hot, cold, wet, or windy it might be!

Date:

Astronomy

Nov. 16, 2011 Rise Set
Actual Time 6:51 AM MST 4:42 PM MST
Civil Twilight 6:22 AM MST 5:12 PM MST
Nautical Twilight 5:48 AM MST 5:45 PM MST
Astronomical Twilight 5:15 AM MST 6:18 PM MST
Moon 9:59 PM MST (11/16) 11:29 AM MST (11/16)
Length of Visible Light 10h 50m
Length of Day
9h 50m
Waning Gibbous, 69% of the Moon is Illuminated
Nov 16
Waning Gibbous
Nov 18
Last Quarter
Nov 24
New
Dec 2
First Quarter
Dec 10
Full

Hourly Weather History & Observations

Time (MST) Temp. Windchill Dew Point Humidity Pressure Visibility Wind Dir Wind Speed Gust Speed Precip Events Conditions
12:53 AM 24.1 °F 9.8 °F 10.0 °F 55% 29.94 in 10.0 mi West 19.6 mph 31.1 mph N/A   Clear
1:53 AM 21.9 °F 7.3 °F 9.0 °F 58% 29.98 in 10.0 mi West 18.4 mph - N/A   Clear
2:53 AM 21.9 °F 5.5 °F 8.1 °F 55% 29.99 in 10.0 mi West 24.2 mph - N/A   Clear
3:53 AM 19.9 °F 3.2 °F 7.0 °F 57% 30.02 in 10.0 mi West 23.0 mph - N/A   Clear
4:53 AM 19.0 °F 3.6 °F 7.0 °F 59% 30.07 in 10.0 mi West 18.4 mph - N/A   Clear
5:53 AM 19.9 °F 6.2 °F 7.0 °F 57% 30.11 in 10.0 mi WNW 15.0 mph - N/A   Overcast
6:51 AM 17.6 °F 0.5 °F 12.2 °F 79% 30.08 in 2.0 mi NW 21.9 mph 32.2 mph 0.00 in Snow Light Snow
6:53 AM 17.1 °F 0.1 °F 12.9 °F 84% 30.21 in 1.5 mi NW 20.7 mph 29.9 mph 0.00 in Snow Light Snow
7:11 AM 17.6 °F -0.3 °F 10.4 °F 73% 30.10 in 3.0 mi NW 24.2 mph 32.2 mph 0.00 in Snow Light Snow
7:32 AM 17.6 °F 0.9 °F 8.6 °F 68% 30.12 in 5.0 mi NW 20.7 mph - 0.00 in Snow Light Snow
7:53 AM 16.0 °F -1.7 °F 9.0 °F 74% 30.26 in 9.0 mi NNW 21.9 mph 29.9 mph 0.00 in Snow Light Snow
8:53 AM 18.0 °F 0.2 °F 6.1 °F 60% 30.28 in 10.0 mi NW 24.2 mph 33.4 mph 0.00 in   Clear
9:53 AM 19.9 °F 3.2 °F 3.9 °F 50% 30.28 in 10.0 mi NW 23.0 mph 28.8 mph N/A   Clear
10:53 AM 21.9 °F 6.5 °F -6.0 °F 29% 30.28 in 10.0 mi NW 20.7 mph 31.1 mph N/A   Clear
11:53 AM 23.0 °F 8.0 °F -8.0 °F 25% 30.26 in 10.0 mi NNW 20.7 mph 29.9 mph N/A   Clear
12:53 PM 26.1 °F 12.7 °F -8.0 °F 22% 30.23 in 10.0 mi NNW 18.4 mph 26.5 mph N/A   Clear
1:53 PM 28.0 °F 18.1 °F -9.9 °F 19% 30.22 in 10.0 mi NNW 11.5 mph 23.0 mph N/A   Clear
2:16 PM 28.4 °F 14.4 °F -14.8 °F 15% 30.13 in 10.0 mi West 23.0 mph - N/A   Clear
2:53 PM 28.9 °F 15.1 °F -16.1 °F 14% 30.19 in 10.0 mi West 23.0 mph 29.9 mph N/A   Clear
3:53 PM 27.0 °F 15.2 °F -14.1 °F 16% 30.22 in 10.0 mi West 15.0 mph 27.6 mph N/A   Clear
4:53 PM 19.4 °F 7.2 °F -5.8 °F 33% 30.15 in 10.0 mi WSW 11.5 mph - N/A   Clear
5:53 PM 21.9 °F 6.9 °F -4.0 °F 32% 30.28 in 10.0 mi SW 19.6 mph - N/A   Clear
6:53 PM 24.1 °F 8.7 °F -2.0 °F 32% 30.28 in 10.0 mi WSW 23.0 mph - N/A   Clear
7:53 PM 24.1 °F 7.7 °F 1.9 °F 38% 30.28 in 10.0 mi West 26.5 mph 34.5 mph N/A   Clear
8:53 PM 21.9 °F 11.0 °F 3.9 °F 46% 30.30 in 10.0 mi WSW 10.4 mph - N/A   Clear
9:53 PM 24.1 °F 16.0 °F 3.0 °F 40% 30.28 in 10.0 mi West 6.9 mph - N/A   Clear
10:53 PM 27.0 °F 15.6 °F 5.0 °F 39% 30.23 in 10.0 mi SW 13.8 mph 25.3 mph N/A   Clear
11:53 PM 24.1 °F 12.0 °F 6.1 °F 46% 30.20 in 10.0 mi SW 13.8 mph 19.6 mph N/A   Clear